ISS DEB (44303 NORAD) Tracking and Keplerian Element Data

This shows tracking and keplerian element data for the satellite.

Feedback or suggestion? Click here.




ElementValue
Catalog44303
NameISS DEB
Epoch Orbit17788
Epoch Day193.20561004
Epoch Year2022
RAAN119.9366
Inclination51.6156
Eccentricity0.0004762
Argument of Perigee242.095
Mean Anonmoly117.9588
Mean Motion16.25009786
Decay Rate0.02119751
L11 44303U 98067QA 22193.20561004 .02119751 11978-4 70675-3 0 9993
L22 44303 51.6156 119.9366 0004762 242.0950 117.9588 16.25009786177880



Live tracking and technical data element details for ISS DEB (NORAD 44303). ISS DEB can be tracked NOW for your location showing map with azimuth and elevation plus other details from your city location.







IsCatalogInMostPopularTable: catalog: 44303, numindb: 25410
Update: records affected: 1



GetName: 44303 ISS DEB

Hit Count: updated at: Wed, 04 Dec 2024 11:21:35 GMT